This is the latest recevied weather packets stored in our database for station/object YD1OCG-15. If no packets are shown the sender has not sent any weather packets the latest 10 day(s).
| Time | Temp. | Humidity | Pressure | Rain* | Wind** | Luminosity | Snow |
|---|---|---|---|---|---|---|---|
| 1788038783 | 25.56° C | 77% | 1014 hPa | - | - | - | - |
| 1788036983 | 26.11° C | 77% | 1014 hPa | - | - | - | - |
| 1788035184 | 25.56° C | 77% | 1013 hPa | - | - | - | - |
| 1788033383 | 26.11° C | 76% | 1014 hPa | - | - | - | - |
| 1788031584 | 25.56° C | 80% | 1014 hPa | - | - | - | - |
| 1788029784 | 26.11° C | 77% | 1014 hPa | - | - | - | - |
| 1788027983 | 26.67° C | 73% | 1014 hPa | - | - | - | - |
| 1788026184 | 26.67° C | 73% | 1014 hPa | - | - | - | - |
| 1788024383 | 26.67° C | 72% | 1014 hPa | - | - | - | - |
| 1788022583 | 27.22° C | 71% | 1015 hPa | - | - | - | - |
| 1788020784 | 26.67° C | 69% | 1015 hPa | - | - | - | - |
| 1788018984 | 27.22° C | 72% | 1015 hPa | - | - | - | - |
| 1788017183 | 26.67° C | 72% | 1015 hPa | - | - | - | - |
| 1788015384 | 27.22° C | 73% | 1016 hPa | - | - | - | - |
| 1788013584 | 26.67° C | 70% | 1014 hPa | - | - | - | - |
| 1788009984 | 26.11° C | 69% | 1014 hPa | - | - | - | - |
| 1788004589 | 26.67° C | 65% | 1014 hPa | - | - | - | - |
| 1788002783 | 27.22° C | 66% | 1012 hPa | - | - | - | - |
| 1788000763 | -17.78° C | - | - | - | - | - | - |
| 1787996364 | 29.44° C | 64% | 1011 hPa | - | - | - | - |
| 1787994565 | 30.56° C | 61% | 1010 hPa | - | - | - | - |
| 1787992764 | 31.11° C | 61% | 1010 hPa | - | - | - | - |
| 1787991203 | 30.56° C | 61% | 1011 hPa | - | - | - | - |
| 1787990200 | 30.56° C | 61% | 1010 hPa | - | - | - | - |
| 1787988384 | 31.67° C | 74% | 1011 hPa | - | - | - | - |
* Rain since midnight (hover to see other rain measurements)
** Current wind speed in m/s (hover to see current wind gust speed)